Location: ?????????
(44.2517°N, 135.2292°E)
Time: 10:35:24
(UTC+00:00)

COSMOS 2406 - Pass Details

Date: 19 May 2025
Orbit: 845 x 859 km, 71.0° (Epoch: 13 June)

Event Time Altitude Azimuth Distance (km) Brightness Sun altitude
Exits shadow 13:29:15 52° 146° (SE) 1,043 3.2 -22.9°
Maximum altitude 13:30:07 58° 110° (ESE) 982 3.3 -22.9°
Drops below altitude 10° 13:35:42 10° 32° (NNE) 2,487 6.1 -23.3°
Sets 13:38:11 0° 29° (NNE) 3,429 7.0 -23.4°
